This is the latest recevied weather packets stored in our database for station/object KG2V. If no packets are shown the sender has not sent any weather packets the latest 1 day(s).
| Time | Temp. | Humidity | Pressure | Rain* | Wind** | Luminosity | Snow |
|---|---|---|---|---|---|---|---|
| 1778033130 | 8.89° C | 98% | 1005.8 hPa | 1.78 mm | 0 m/s | 0 W/m² | - |
| 1778032827 | 8.89° C | 98% | 1005.8 hPa | 0 mm | 0 m/s | 0 W/m² | - |
| 1778032525 | 8.89° C | 98% | 1006 hPa | 0 mm | 0 m/s | 0 W/m² | - |
| 1778032221 | 8.89° C | 98% | 1005.9 hPa | 0 mm | 0 m/s | 0 W/m² | - |
| 1778031919 | 8.89° C | 97% | 1006 hPa | 1.27 mm | 0 m/s | 0 W/m² | - |
| 1778031614 | 8.89° C | 97% | 1005.7 hPa | 3.05 mm | 0 m/s | 0 W/m² | - |
| 1778031313 | 8.89° C | 97% | 1005.7 hPa | 1.78 mm | 0 m/s | 0 W/m² | - |
| 1778031009 | 8.89° C | 97% | 1005.9 hPa | 1.27 mm | 0 m/s | 0 W/m² | - |
| 1778030705 | 8.89° C | 97% | 1005.9 hPa | 1.27 mm | 0 m/s | 0 W/m² | - |
| 1778030402 | 8.89° C | 97% | 1005.8 hPa | 0 mm | 0 m/s | 0 W/m² | - |
| 1778030100 | 8.89° C | 97% | 1005.8 hPa | 0 mm | 0 m/s | 0 W/m² | - |
| 1778029796 | 8.89° C | 97% | 1005.8 hPa | 1.78 mm | 0 m/s | 0 W/m² | - |
| 1778029495 | 8.89° C | 97% | 1005.6 hPa | 1.78 mm | 0 m/s | 0 W/m² | - |
| 1778029191 | 8.89° C | 97% | 1005.4 hPa | 0 mm | 0 m/s | 0 W/m² | - |
| 1778028889 | 8.89° C | 97% | 1005.4 hPa | 0 mm | 0 m/s | 0 W/m² | - |
| 1778028584 | 8.89° C | 97% | 1005.2 hPa | 0 mm | 0 m/s | 0 W/m² | - |
| 1778028282 | 8.89° C | 96% | 1005.3 hPa | 0 mm | 0 m/s | 0 W/m² | - |
| 1778027978 | 8.33° C | 96% | 1005.1 hPa | 0 mm | 0 m/s | 0 W/m² | - |
| 1778027675 | 8.89° C | 96% | 1005.2 hPa | 1.27 mm | 0 m/s | 0 W/m² | - |
| 1778027371 | 8.89° C | 96% | 1005.1 hPa | 3.05 mm | 0 m/s | 0 W/m² | - |
| 1778027067 | 8.89° C | 96% | 1005.4 hPa | 3.05 mm | 0 m/s | 0 W/m² | - |
| 1778026763 | 8.33° C | 96% | 1005 hPa | 1.27 mm | 0 m/s | 0 W/m² | - |
| 1778026460 | 8.89° C | 96% | 1005.1 hPa | 0 mm | 0 m/s | 0 W/m² | - |
| 1778026157 | 8.89° C | 96% | 1004.9 hPa | 1.78 mm | 0 m/s | 1 W/m² | - |
| 1778025855 | 8.89° C | 96% | 1004.9 hPa | 1.78 mm | 0 m/s | 1 W/m² | - |
* Rain latest hour (hover to see other rain measurements)
** Current wind speed in m/s (hover to see current wind gust speed)